sat.trackr.live / text

‹ back to catalog

STARLINK-4505

NORAD 53556 · 2022-101AF

PAYLOAD ACTIVE UNKNOWN

§ Identity

Operator
Country
US
Launch date
2022-08-19
Launch site
AFETR
Launch vehicle
Mass (kg)
RCS (m²)

Purposes: comms

External: N2YO · Heavens-Above · Gunter

§ Orbital elements

Epoch: 2026-09-19T17:38:30.719328Z

Period
95.44 min
Inclination
53.1598°
Eccentricity
0.0001164
Mean motion
15.08829383 rev/d
Perigee alt
539.0 km
Apogee alt
540.6 km
Semi-major
6,917.9 km
B*
2.0664e-5
RAAN
272.3615°
Arg perigee
77.1565°
Mean anomaly
282.9557°
Rev number
22,560

§ Raw data

STARLINK-45051 53556U 22101AF  26262.73507777  .00000041  00000+0  20664-4 0  99972 53556  53.1598 272.3615 0001164  77.1565 282.9557 15.08829383225606

JSON: /api/v1/satellites/53556 · /tle

For live sub-satellite position, see the globe view (requires WebGL).

§ Visibility from observer

Set your observer location to see the next 7 days of passes ≥ 10°. The values pass through the URL so the page stays shareable.

No JS? Fill the form by hand. The geolocation button needs JavaScript.